Flag for Switzerland Weather past 2 weeks in Davos, Graubünden, Switzerland

Now
69 °F

Haze.


Feels Like: 69 °F
Forecast: 44 / 68 °F
Wind: 6 mph from Northeast

Location: Chur-Ems

Current Time: Jul 31, 2014 at 9:24:48 PM

Latest Report: Jul 31, 2014 at 8:00 PM


Visibility: 7 mi

Pressure: 29.87 "Hg

Humidity: 65%

Dew point: 57 °F

Location of DavosLocation

Historic Weather in Davos — Graph

°F

Davos temperature yesterday

Maximum temperature yesterday: 66 °F (at 1:00 PM)
Minimum temperature yesterday: 60 °F (at 5:00 AM)
Average temperature yesterday: 62 °F

Past Weeks' High & Low Weather Summary

 TemperatureHumidityPressure
High93 °F (Jul 19, 3:00 PM)97% (Jul 22, 2:00 AM)30.22 "Hg (Jul 22, 2:00 AM)
Low54 °F (Jul 25, 6:00 AM)23% (Jul 19, 4:00 PM)29.70 "Hg (Jul 28, 6:00 PM)
Average67 °F74%29.92 "Hg
* Reported Jul 16 8:00 PM — Jul 31 8:00 PM, Davos, Weather by CustomWeather, © 2014

Note: Actual official high and low records may vary slightly from our data, if they occured in-between our weather recording intervals... More about our weather records

Advertising

Davos weather history for previous 24 hours

 ConditionsComfort  
Time TempWeatherWind HumidityBarometerVisibility
8:00 PM
Jul 31
69 °FHaze.6 mph65%29.87 "Hg7 mi
7:00 PM71 °FMild.7 mph61%29.86 "HgN/A
6:00 PM74 °FMild.12 mph57%29.85 "HgN/A
5:00 PM75 °FScattered clouds.14 mph56%29.85 "Hg6 mi
4:00 PM75 °FMild.12 mph58%29.86 "HgN/A
3:00 PM74 °FMild.14 mph60%29.88 "HgN/A
2:00 PM71 °FPartly sunny.12 mph67%29.91 "Hg6 mi
1:00 PM69 °FMild.9 mph72%29.93 "HgN/A
12:00 PM69 °FMild.10 mph73%29.94 "HgN/A
11:00 AM67 °FFog.8 mph75%29.96 "Hg6 mi
10:00 AM64 °FMild.7 mph81%29.98 "HgN/A
9:00 AM64 °FMild.7 mph78%29.96 "HgN/A
8:00 AM63 °FLow clouds.7 mph84%29.95 "Hg3 mi
7:00 AM62 °FCool.9 mph89%29.95 "HgN/A
6:00 AM62 °FCool.6 mph93%29.94 "HgN/A
5:00 AM62 °FLight rain. Low clouds.1 mph96%29.93 "Hg3 mi
4:00 AM62 °FCool.1 mph95%29.92 "HgN/A
3:00 AM61 °FCool.1 mph97%29.92 "HgN/A
2:00 AM62 °FRain. Low clouds.1 mph95%29.91 "Hg1 mi
1:00 AM62 °FCool.1 mph96%29.92 "HgN/A
12:00 AM62 °FCool.2 mph97%29.92 "HgN/A
11:00 PM
Jul 30
62 °FDrizzle. Low clouds.1 mph95%29.91 "Hg3 mi
10:00 PM61 °FCool.1 mph95%29.91 "HgN/A
9:00 PM61 °FCool.6 mph95%29.89 "HgN/A
Weather by CustomWeather, © 2014

See weather overviewHow to use our weather pages